Theta_e
338 339 335 338 342 339 340 340 339 339 338 338 336 335 334 331 332 330 327 327 327 327 329 334 344 343 343 344 341 338 334 338 340 341 340 340 341 342 339 340 343 343 339
337 339 336 339 342 340 339 338 338 339 338 337 336 336 334 333 332 332 331 324 329 329 329 333 344 342 343 342 338 337 338 339 339 339 339 340 340 340 339 341 342 342 339
333 338 338 341 341 340 340 338 337 336 336 337 338 338 336 335 333 333 334 329 324 332 334 337 343 342 343 340 338 337 338 339 337 338 338 339 341 338 339 340 340 340 339
331 336 339 339 339 339 339 338 337 337 336 338 338 338 336 335 333 335 335 336 325 331 334 339 343 342 341 340 338 337 336 337 336 336 338 337 338 338 338 338 339 339 338
329 334 336 337 338 337 339 339 338 336 335 336 337 336 335 335 335 337 336 338 335 334 334 340 342 341 341 340 337 337 336 336 334 336 336 336 337 339 340 339 339 337 338
330 331 335 336 336 337 337 337 337 335 334 334 335 336 335 335 335 338 335 335 335 335 334 341 341 340 340 339 337 336 336 335 333 336 335 335 335 339 339 338 336 336 333
328 327 330 335 337 337 337 337 336 336 334 333 332 333 335 336 336 336 334 333 335 336 330 341 339 340 340 338 337 334 334 333 334 333 334 335 338 337 338 335 334 333 334
327 326 324 326 331 334 336 336 335 335 333 332 332 330 334 333 335 334 332 332 335 335 331 340 339 339 338 336 335 330 327 332 334 334 335 337 337 337 337 336 334 333 333
325 326 325 323 325 328 331 333 336 336 333 332 331 330 332 330 331 331 331 332 335 335 332 338 339 339 337 335 333 328 328 331 333 334 336 337 335 336 336 335 335 332 333
324 325 326 328 324 331 333 332 337 336 333 331 330 330 330 329 330 330 331 331 334 333 335 338 338 336 333 331 326 326 327 332 333 335 335 335 333 336 335 333 333 332 330
322 322 324 327 330 331 332 334 335 334 333 330 330 328 326 330 331 332 333 333 334 333 333 336 336 333 330 328 330 330 332 332 333 333 333 332 332 335 334 332 330 329 326
314 318 323 325 329 330 332 334 335 335 333 331 331 330 329 329 331 333 333 332 334 333 331 336 333 331 327 329 330 331 331 330 331 332 332 331 331 333 333 329 327 325 324
309 312 315 321 325 330 332 332 334 334 334 332 332 331 330 329 329 328 332 331 333 332 332 332 328 326 324 323 323 324 326 327 329 330 330 330 330 332 331 328 327 325 325
305 306 309 313 320 325 328 331 331 332 333 332 331 331 329 329 329 330 329 331 331 331 329 327 326 326 324 324 323 322 319 318 324 327 328 328 329 330 329 328 326 323 324
305 306 306 308 315 320 325 326 330 330 331 331 331 330 328 327 327 328 328 331 330 329 328 326 325 324 323 323 320 322 324 324 323 325 327 327 327 328 328 325 325 326 324
304 305 307 307 310 315 321 325 326 328 329 330 329 328 327 326 327 327 327 327 327 325 323 322 322 319 319 321 320 323 322 322 323 324 325 325 326 326 326 326 326 325 323
303 304 306 308 310 312 317 321 324 326 326 329 329 327 326 326 327 326 326 326 326 321 319 319 323 322 320 321 321 320 320 322 322 323 323 323 325 324 324 323 323 322 323
301 301 302 306 311 314 315 319 321 322 324 325 327 327 326 325 326 326 326 325 326 322 321 319 322 320 320 320 320 320 319 319 321 321 321 323 323 323 322 321 323 322 321
298 299 300 302 304 309 317 317 319 319 322 322 325 326 325 324 324 325 325 323 323 321 320 319 321 321 319 320 319 315 316 317 320 321 320 322 322 322 321 321 320 320 319
297 297 298 300 302 304 308 316 318 318 319 322 323 323 323 323 323 324 322 322 321 320 318 318 319 320 319 319 318 318 318 318 320 320 320 320 321 321 321 321 320 318 318
297 296 297 299 301 305 306 308 311 318 319 321 321 322 321 322 321 322 322 320 319 319 318 318 318 318 318 317 314 313 315 317 319 320 320 320 320 320 320 319 318 318 317
297 296 296 298 300 304 305 306 306 309 314 320 320 320 321 321 321 321 321 319 319 317 316 316 317 316 315 315 316 314 312 311 313 316 318 319 320 319 318 317 316 317 317
296 295 295 296 298 302 302 301 302 305 309 315 320 320 320 320 320 320 319 318 318 317 316 316 316 315 315 315 315 315 316 316 309 310 312 315 317 318 318 317 317 317 318
295 294 294 295 297 300 301 300 298 301 306 309 312 320 319 317 318 319 319 318 317 317 317 315 316 315 315 315 315 314 314 313 314 307 306 311 312 314 316 317 317 318 318
294 293 294 294 296 296 300 299 298 298 300 304 307 313 319 318 319 318 318 318 316 316 317 315 315 316 314 314 314 310 306 311 314 312 306 300 308 309 310 310 311 311 312
293 293 293 293 293 294 295 299 297 298 299 301 304 308 317 318 318 317 317 317 316 315 315 315 315 315 314 314 313 311 308 311 312 314 314 304 304 301 306 308 309 309 310
Wind_Speed
10 9 16 21 19 21 19 17 16 15 14 12 11 11 13 12 11 11 12 12 12 12 12 10 10 17 20 20 20 19 17 18 18 17 15 15 16 16 18 19 18 16 19
5 10 15 19 19 19 20 20 18 18 17 14 12 12 12 12 12 11 12 13 13 13 13 12 12 18 21 22 20 20 20 21 20 19 17 16 16 16 17 17 16 18 20
7 11 15 19 20 21 19 19 18 19 18 15 13 12 12 12 11 11 12 12 14 14 13 14 15 20 23 23 23 22 21 20 20 21 19 15 14 16 16 18 18 20 21
9 13 15 20 21 20 21 20 19 18 17 15 14 14 14 13 13 12 13 13 14 15 15 16 18 22 25 25 26 22 21 18 19 19 16 16 15 17 17 18 19 20 22
11 14 16 22 24 23 22 22 21 21 19 17 15 15 14 14 15 15 14 16 15 16 17 17 20 24 27 28 26 23 22 19 19 18 14 16 17 17 19 19 20 21 21
12 15 17 22 23 24 23 23 22 22 22 19 16 16 15 16 15 15 15 16 17 18 20 19 22 25 28 30 26 24 21 20 20 14 15 16 18 19 19 20 23 23 22
14 17 20 22 24 25 24 24 24 24 23 22 18 17 19 20 18 16 16 17 18 20 23 21 25 26 30 29 24 25 22 20 16 15 14 18 17 22 22 25 25 24 25
14 17 20 22 23 26 26 25 24 25 25 23 21 20 21 20 21 19 17 17 16 20 26 24 28 28 32 29 23 21 19 22 17 15 16 17 20 23 26 27 27 26 25
16 16 18 21 24 24 25 26 24 25 24 23 23 22 20 19 20 19 18 17 16 21 28 27 29 31 31 28 25 25 27 23 17 16 17 15 23 25 26 26 27 26 26
16 18 19 19 24 20 21 27 26 25 24 23 23 21 20 20 19 18 17 16 16 21 29 31 32 32 29 30 27 30 26 24 17 18 16 17 22 26 27 26 26 25 25
18 20 21 21 21 21 20 23 28 26 25 25 23 22 21 17 17 16 16 15 14 21 28 31 37 35 35 29 29 29 30 19 17 17 15 20 21 25 27 28 24 23 24
23 22 22 23 23 22 21 21 24 23 23 23 22 21 20 19 17 15 13 15 14 17 25 35 41 40 36 33 29 27 26 22 15 15 14 21 22 24 26 26 25 21 22
26 24 23 24 25 25 23 20 20 25 25 25 25 24 21 20 17 17 12 16 12 19 20 16 34 42 38 31 24 22 20 17 17 16 15 19 21 24 25 26 25 25 23
32 29 26 24 25 28 28 24 23 22 25 25 26 25 23 21 16 15 16 17 19 25 19 14 23 22 23 23 22 17 19 18 15 15 19 19 23 25 26 26 25 24 24
35 35 32 23 23 26 30 32 28 32 24 27 26 26 24 22 19 16 18 21 24 24 22 27 26 27 25 27 24 22 24 24 21 16 16 20 22 25 26 26 27 27 26
33 36 35 28 21 23 28 30 31 31 32 27 27 29 28 25 21 20 21 24 26 29 28 27 27 26 27 24 27 24 25 23 24 23 19 19 21 22 27 28 29 27 26
33 33 35 33 26 21 23 30 30 30 32 29 29 29 28 27 24 23 26 27 27 28 31 30 30 32 35 31 29 26 25 25 25 25 21 19 22 24 25 27 26 25 25
35 36 35 33 31 23 21 25 27 30 30 35 29 29 30 28 25 24 26 30 28 32 32 32 32 36 36 39 28 29 23 24 26 25 23 25 24 25 27 28 26 24 23
36 37 35 33 31 30 24 22 27 31 33 35 34 30 29 29 27 25 27 32 32 32 32 39 35 39 32 27 28 30 28 27 26 25 24 25 27 27 26 28 28 24 23
37 39 34 31 31 30 28 26 25 29 32 32 35 33 30 31 32 28 28 34 35 34 33 30 31 31 38 31 27 29 28 29 30 30 29 27 26 28 28 29 27 25 23
31 36 36 33 30 31 28 26 28 26 29 31 32 38 35 38 35 36 32 36 37 37 38 38 33 30 27 34 28 20 19 21 25 25 29 30 29 28 28 29 28 25 22
29 34 35 33 30 29 28 29 27 29 32 31 32 36 39 40 40 37 36 38 40 35 37 36 32 26 23 37 23 18 4 5 16 23 27 30 30 29 29 27 27 27 26
28 32 33 35 33 28 28 30 33 35 32 27 29 33 34 39 43 41 39 38 41 39 39 44 40 30 26 26 32 19 7 7 7 11 20 26 29 28 28 27 26 25 24
32 34 35 34 34 30 28 23 21 24 29 33 32 31 33 40 40 42 44 40 41 38 39 42 48 37 32 28 28 20 19 20 8 3 8 20 23 23 25 25 24 24 24
34 38 36 36 33 35 31 26 22 19 25 33 33 32 34 37 41 44 41 43 41 38 39 42 42 40 34 35 30 20 13 17 25 6 4 5 16 19 20 21 21 21 21
36 39 36 35 36 34 34 33 27 23 23 29 34 30 29 36 39 42 42 44 43 41 41 44 43 42 38 31 38 29 22 18 21 16 6 6 12 13 17 17 18 18 19
Wind_Direction
220 202 193 193 195 194 195 198 201 205 206 208 218 226 229 231 234 239 238 239 243 238 225 218 214 197 188 181 179 175 168 155 157 156 146 140 133 131 136 133 125 127 127
200 200 198 196 200 204 204 205 206 210 213 216 223 230 232 228 232 233 233 232 237 238 228 216 212 199 187 179 178 167 164 165 165 153 148 143 143 141 141 132 134 133 130
202 196 199 199 201 204 207 209 207 211 216 218 217 218 221 220 225 231 232 230 234 235 233 218 209 197 191 180 172 173 170 170 166 160 151 149 150 151 152 146 146 137 132
208 202 201 207 211 213 214 216 218 222 224 218 218 221 221 221 220 223 230 237 238 233 231 221 210 197 189 184 177 177 177 178 170 161 155 160 159 158 156 150 144 139 135
212 208 210 215 215 216 218 225 224 223 229 223 228 224 222 224 224 223 224 235 239 233 227 221 204 197 192 186 181 180 180 178 175 161 168 165 162 163 157 150 146 138 130
219 222 222 219 222 226 226 224 228 230 231 231 227 223 227 224 229 227 224 230 241 235 223 214 200 193 188 187 184 177 174 179 169 170 169 168 165 166 157 149 143 140 135
231 226 228 227 225 227 231 234 233 228 232 234 234 220 225 229 233 232 232 232 237 233 216 211 199 195 183 186 182 172 173 173 164 169 167 165 164 161 151 145 140 136 133
243 237 233 234 233 232 232 233 236 231 230 231 233 226 226 233 231 236 236 239 241 228 210 206 195 192 180 179 175 173 170 171 170 167 165 162 165 156 147 140 137 132 129
253 249 241 236 232 235 236 234 229 228 231 230 230 232 230 229 231 236 235 238 241 217 203 203 194 180 191 193 177 171 173 171 170 168 162 160 162 153 148 141 138 133 122
254 252 247 243 241 234 234 229 225 225 228 231 231 235 235 232 229 230 233 234 240 218 199 196 182 175 169 160 167 172 170 165 166 166 159 159 158 151 141 137 130 127 126
276 262 255 247 241 235 235 230 225 225 228 227 229 232 233 230 226 220 225 225 224 215 203 193 172 164 163 163 162 161 161 163 164 166 162 163 166 149 139 135 132 132 136
312 291 273 263 251 243 233 231 225 224 222 224 222 221 224 226 220 212 217 221 215 212 205 191 167 164 158 154 153 157 164 161 153 163 159 161 162 152 140 135 132 139 145
334 313 296 274 257 251 240 233 227 222 221 222 222 220 216 216 219 213 207 213 204 194 165 162 145 151 153 151 154 155 164 173 162 160 154 163 163 149 142 135 133 133 141
2 344 320 294 268 253 247 237 231 225 220 217 221 216 213 209 211 202 205 198 183 171 164 156 139 151 157 169 174 171 168 170 188 171 162 157 154 145 142 141 137 138 146
8 0 349 317 284 265 248 242 234 230 226 223 215 215 213 216 211 207 198 185 189 179 172 154 146 147 161 162 166 174 184 181 181 169 155 163 160 153 149 145 142 145 144
359 0 358 351 316 285 264 248 241 234 231 227 221 215 215 218 217 204 193 176 168 160 156 159 156 161 160 176 173 175 179 171 172 166 160 166 170 162 153 148 145 147 146
1 355 358 354 344 312 284 265 248 247 235 229 224 221 214 211 212 200 194 186 171 167 162 163 170 176 169 175 181 178 178 169 168 163 159 166 163 159 154 146 147 149 148
358 357 354 354 350 336 304 276 261 250 246 237 226 222 216 209 207 203 191 193 184 181 180 172 171 161 169 171 177 167 177 178 175 168 169 169 166 161 159 154 148 149 150
357 351 347 347 346 343 323 295 268 261 250 241 238 225 217 211 204 204 192 196 186 179 175 176 171 168 162 170 170 168 177 181 182 172 169 163 164 161 162 154 153 151 151
354 353 348 343 342 338 337 320 292 264 253 244 239 232 222 209 204 198 196 196 193 177 175 178 177 169 166 166 160 163 174 178 183 173 172 170 168 164 157 149 149 154 159
353 355 349 345 341 342 335 335 324 300 262 243 238 233 230 218 206 199 196 197 191 183 180 180 174 168 160 161 144 133 154 169 180 182 172 170 165 163 160 155 157 160 162
345 350 348 344 340 339 340 328 328 320 300 257 236 235 233 221 212 200 196 194 189 183 174 174 173 162 162 166 160 143 140 135 179 183 178 169 167 170 168 168 169 173 172
339 341 339 335 331 331 334 343 336 329 320 296 236 228 230 218 210 201 198 194 189 186 176 178 180 178 168 176 172 164 157 183 149 186 181 172 167 167 169 173 175 178 183
332 336 330 330 327 324 327 328 342 323 311 308 291 232 224 226 222 200 196 193 186 185 182 179 180 179 177 172 175 180 186 164 166 145 186 174 171 167 169 174 180 182 189
326 331 323 324 318 321 315 314 319 318 314 306 301 286 217 215 217 201 189 188 189 186 186 183 182 180 185 177 180 184 173 170 187 158 148 162 174 178 175 180 185 190 194
318 323 317 312 313 310 313 304 309 313 319 314 304 296 265 209 205 200 192 188 189 187 186 186 185 185 185 194 187 192 185 174 177 163 164 160 156 182 184 187 190 196 202